When you browse on this site, cookies collect data to enhance your experience and personalize the content and advertising you see.
Visit our Privacy Policy to learn more. By continuing to use the site, you agree to this use of cookies and data.
  • In Spain
  • List of Countries
  • For 7 days
  • Water Temperature
  • Satellite Maps
  • Weather Map
  • Weather Widgets
  • user-avatar
    Login

    Hourly Weather Stahanovo

    Today, 22 March, Friday

    Time Temperature Precipitation Wind Pressure Humidity
    00:00 -3°C° 0 mm 2 mps 744 mmHg 92%
    01:00 -3°C° 0 mm 2 mps 743 mmHg 92%
    02:00 -3°C° 0 mm 2 mps 743 mmHg 91%
    03:00 -3°C° 0 mm 2 mps 742 mmHg 91%
    04:00 -4°C° 0 mm 3 mps 742 mmHg 91%
    05:00 -4°C° 0 mm 3 mps 741 mmHg 91%
    06:00 -3°C° 0.2 mm 4 mps 740 mmHg 91%
    07:00 -2°C° 0.2 mm 5 mps 739 mmHg 90%
    08:00 -2°C° 0 mm 6 mps 738 mmHg 90%
    09:00 -2°C° 0.9 mm 7 mps 737 mmHg 91%
    10:00 -2°C° 0.9 mm 7 mps 736 mmHg 93%
    11:00 -2°C° 0.9 mm 7 mps 735 mmHg 94%
    12:00 -1°C° 0.7 mm 7 mps 735 mmHg 93%
    13:00 -1°C° 0.7 mm 7 mps 734 mmHg 92%
    14:00 -1°C° 0.7 mm 7 mps 734 mmHg 91%
    15:00 -1°C° 0.3 mm 8 mps 735 mmHg 88%
    16:00 -2°C° 0.3 mm 8 mps 735 mmHg 84%
    17:00 -2°C° 0.3 mm 8 mps 735 mmHg 80%
    18:00 -4°C° 0.1 mm 8 mps 736 mmHg 80%
    19:00 -3°C° 0.1 mm 7 mps 736 mmHg 81%
    20:00 -4°C° 0.1 mm 7 mps 736 mmHg 81%
    21:00 -4°C° 0 mm 7 mps 736 mmHg 82%
    22:00 -4°C° 0 mm 7 mps 736 mmHg 84%
    23:00 -4°C° 0 mm 7 mps 737 mmHg 85%

    Tomorrow, 23 March, Saturday

    Time Temperature Precipitation Wind Pressure Humidity
    00:00 -4°C° 0.1 mm 7 mps 737 mmHg 85%
    01:00 -3°C° 0.1 mm 7 mps 737 mmHg 86%
    02:00 -3°C° 0.1 mm 7 mps 737 mmHg 86%
    03:00 -3°C° 0.2 mm 7 mps 737 mmHg 88%
    04:00 -3°C° 0.2 mm 7 mps 738 mmHg 89%
    05:00 -3°C° 0.2 mm 7 mps 738 mmHg 90%
    06:00 -3°C° 0 mm 7 mps 740 mmHg 90%
    07:00 -3°C° 0 mm 7 mps 741 mmHg 90%
    08:00 -3°C° 0 mm 6 mps 742 mmHg 89%
    09:00 -3°C° 0 mm 6 mps 742 mmHg 88%
    10:00 -2°C° 0 mm 6 mps 743 mmHg 87%
    11:00 -2°C° 0 mm 6 mps 744 mmHg 86%
    12:00 -2°C° 0 mm 6 mps 744 mmHg 85%
    13:00 -1°C° 0 mm 5 mps 744 mmHg 85%
    14:00 -1°C° 0 mm 5 mps 744 mmHg 84%
    15:00 -1°C° 0 mm 4 mps 744 mmHg 85%
    16:00 -2°C° 0 mm 4 mps 744 mmHg 85%
    17:00 -1°C° 0 mm 3 mps 744 mmHg 86%
    18:00 -1°C° 0 mm 2 mps 745 mmHg 87%
    19:00 -1°C° 0 mm 2 mps 745 mmHg 88%
    20:00 0°C° 0 mm 1 mps 745 mmHg 89%
    21:00 0°C° 0 mm 1 mps 745 mmHg 88%
    22:00 0°C° 0 mm 1 mps 745 mmHg 87%
    23:00 -1°C° 0 mm 0 mps 745 mmHg 86%

    Day after tomorrow, 24 March, Sunday

    Time Temperature Precipitation Wind Pressure Humidity
    00:00 0°C° 0 mm 1 mps 744 mmHg 85%
    01:00 -1°C° 0 mm 1 mps 744 mmHg 85%
    02:00 -1°C° 0 mm 1 mps 743 mmHg 84%
    03:00 -3°C° 0 mm 2 mps 743 mmHg 86%
    04:00 -3°C° 0 mm 2 mps 742 mmHg 87%
    05:00 -4°C° 0 mm 2 mps 742 mmHg 88%
    06:00 -4°C° 0 mm 3 mps 742 mmHg 88%
    07:00 -3°C° 0 mm 4 mps 741 mmHg 87%
    08:00 -2°C° 0 mm 4 mps 741 mmHg 87%
    09:00 -2°C° 0.1 mm 5 mps 740 mmHg 87%
    10:00 -2°C° 0.1 mm 5 mps 740 mmHg 88%
    11:00 -1°C° 0.1 mm 5 mps 739 mmHg 89%
    12:00 -1°C° 0.2 mm 5 mps 739 mmHg 90%
    13:00 -1°C° 0.2 mm 5 mps 738 mmHg 90%
    14:00 -1°C° 0.2 mm 5 mps 738 mmHg 91%
    15:00 -1°C° 0 mm 4 mps 737 mmHg 92%
    16:00 0°C° 0 mm 3 mps 737 mmHg 92%
    17:00 0°C° 0 mm 3 mps 737 mmHg 92%
    18:00 0°C° 0 mm 3 mps 737 mmHg 92%
    19:00 0°C° 0 mm 3 mps 737 mmHg 91%
    20:00 -1°C° 0 mm 3 mps 737 mmHg 90%
    21:00 -1°C° 0 mm 3 mps 737 mmHg 90%
    22:00 -1°C° 0 mm 3 mps 737 mmHg 89%
    23:00 -2°C° 0 mm 3 mps 737 mmHg 88%

    25 March, Monday

    Time Temperature Precipitation Wind Pressure Humidity
    00:00 -2°C° 0 mm 3 mps 737 mmHg 87%
    01:00 -2°C° 0 mm 2 mps 737 mmHg 87%
    02:00 -3°C° 0 mm 2 mps 737 mmHg 86%
    03:00 -3°C° 0 mm 2 mps 737 mmHg 85%
    04:00 -3°C° 0 mm 2 mps 737 mmHg 85%
    05:00 -3°C° 0 mm 2 mps 737 mmHg 84%
    06:00 -2°C° 0 mm 3 mps 737 mmHg 82%
    07:00 -1°C° 0 mm 3 mps 737 mmHg 79%
    08:00 -1°C° 0 mm 3 mps 737 mmHg 76%
    09:00 0°C° 0 mm 3 mps 737 mmHg 72%
    10:00 0°C° 0 mm 4 mps 737 mmHg 68%
    11:00 +1°C° 0 mm 4 mps 737 mmHg 65%
    12:00 +3°C° 0 mm 4 mps 737 mmHg 63%
    13:00 +3°C° 0 mm 4 mps 737 mmHg 61%
    14:00 +3°C° 0 mm 3 mps 737 mmHg 59%
    15:00 +3°C° 0 mm 3 mps 737 mmHg 63%
    16:00 +3°C° 0 mm 2 mps 737 mmHg 68%
    17:00 +2°C° 0 mm 2 mps 736 mmHg 73%
    18:00 +2°C° 0 mm 2 mps 737 mmHg 75%
    19:00 +1°C° 0 mm 2 mps 737 mmHg 77%
    20:00 -1°C° 0 mm 2 mps 737 mmHg 79%
    21:00 -1°C° 0 mm 2 mps 737 mmHg 79%
    22:00 -1°C° 0 mm 2 mps 737 mmHg 79%
    23:00 -1°C° 0 mm 2 mps 737 mmHg 80%

    26 March, Tuesday

    Time Temperature Precipitation Wind Pressure Humidity
    00:00 -1°C° 0 mm 2 mps 738 mmHg 79%
    01:00 -2°C° 0 mm 2 mps 738 mmHg 79%
    02:00 -2°C° 0 mm 2 mps 738 mmHg 79%
    03:00 -2°C° 0 mm 2 mps 738 mmHg 80%
    04:00 -2°C° 0 mm 2 mps 738 mmHg 82%
    05:00 -2°C° 0 mm 2 mps 738 mmHg 83%
    06:00 -1°C° 0 mm 2 mps 738 mmHg 81%
    07:00 -1°C° 0 mm 2 mps 739 mmHg 79%
    08:00 +1°C° 0 mm 2 mps 739 mmHg 76%
    09:00 +2°C° 0 mm 2 mps 739 mmHg 72%
    10:00 +3°C° 0 mm 2 mps 739 mmHg 67%
    11:00 +3°C° 0 mm 3 mps 739 mmHg 63%
    12:00 +3°C° 0.1 mm 4 mps 739 mmHg 64%
    13:00 +3°C° 0.1 mm 4 mps 739 mmHg 64%
    14:00 +3°C° 0.1 mm 5 mps 739 mmHg 65%
    15:00 +1°C° 0.1 mm 5 mps 739 mmHg 69%
    16:00 0°C° 0.1 mm 4 mps 740 mmHg 73%
    17:00 -1°C° 0.1 mm 4 mps 740 mmHg 76%
    18:00 -1°C° 0 mm 3 mps 740 mmHg 77%
    19:00 -2°C° 0 mm 3 mps 741 mmHg 78%
    20:00 -4°C° 0 mm 3 mps 742 mmHg 79%
    21:00 -4°C° 0 mm 3 mps 742 mmHg 78%
    22:00 -4°C° 0 mm 3 mps 742 mmHg 78%
    23:00 -4°C° 0 mm 3 mps 743 mmHg 77%

    27 March, Wednesday

    Time Temperature Precipitation Wind Pressure Humidity
    00:00 -4°C° 0 mm 3 mps 743 mmHg 77%
    01:00 -4°C° 0 mm 3 mps 743 mmHg 77%
    02:00 -5°C° 0 mm 3 mps 743 mmHg 77%
    03:00 -4°C° 0 mm 3 mps 743 mmHg 76%
    04:00 -4°C° 0 mm 3 mps 743 mmHg 75%
    05:00 -4°C° 0 mm 3 mps 743 mmHg 74%
    06:00 -3°C° 0 mm 4 mps 744 mmHg 68%
    07:00 -2°C° 0 mm 5 mps 744 mmHg 62%
    08:00 -1°C° 0 mm 5 mps 744 mmHg 57%
    09:00 -1°C° 0 mm 6 mps 744 mmHg 54%
    10:00 +1°C° 0 mm 6 mps 744 mmHg 51%
    11:00 +2°C° 0 mm 6 mps 744 mmHg 49%
    12:00 +2°C° 0 mm 6 mps 743 mmHg 50%
    13:00 +3°C° 0 mm 6 mps 743 mmHg 51%
    14:00 +3°C° 0 mm 7 mps 743 mmHg 53%
    15:00 +3°C° 0 mm 6 mps 743 mmHg 58%
    16:00 +2°C° 0 mm 5 mps 743 mmHg 64%
    17:00 +1°C° 0 mm 4 mps 743 mmHg 69%
    18:00 +1°C° 0 mm 4 mps 743 mmHg 73%
    19:00 0°C° 0 mm 4 mps 744 mmHg 77%
    20:00 -1°C° 0 mm 4 mps 744 mmHg 81%
    21:00 -1°C° 0 mm 4 mps 744 mmHg 81%
    22:00 -1°C° 0 mm 5 mps 744 mmHg 81%
    23:00 0°C° 0 mm 5 mps 744 mmHg 81%
    Show more